, MT

(GMT )
West Yellowstone

Weather History for KWYS - November, 2013

Change the Weather History Date:

Sunday, November 3, 2013

  Actual Average Record
Temperature  
Mean Temperature 24 °F -  
Max Temperature 32 °F 40 °F 53 °F (2016)
Min Temperature 17 °F 15 °F 5 °F (2011)
Degree Days  
Heating Degree Days 40    
Moisture  
Dew Point 21 °F    
Average Humidity 86    
Maximum Humidity 93    
Minimum Humidity 80    
Precipitation  
Precipitation 0.09 in - - ()
Sea Level Pressure  
Sea Level Pressure 29.77 in    
Wind  
Wind Speed 7 mph (SW)    
Max Wind Speed 14 mph    
Max Gust Speed 20 mph    
Visibility 7 miles    
Events Snow    
Averages and records for this station are not official NWS values.
T = Trace of Precipitation, MM = Missing Value Source: NWS Daily Summary

Daily Weather History Graph

Daily Weather History Graph

Search for Another Location

Airport or City:

Trip Planner

Search our weather history database for the weather conditions in past years. The results will help you decide how hot, cold, wet, or windy it might be!

Date:

Astronomy

Nov. 03, 2013 Rise Set
Actual Time 7:05 AM MST 5:09 PM MST
Civil Twilight 6:34 AM MST 5:40 PM MST
Nautical Twilight 6:00 AM MST 6:15 PM MST
Astronomical Twilight 5:26 AM MST 6:49 PM MST
Moon 7:14 AM MST (11/3) 5:26 PM MST (11/3)
Length of Visible Light 11h 05m
Length of Day
10h 04m
New Moon, 0% of the Moon is Illuminated
Nov 3
New Moon
Nov 9
First Quarter
Nov 17
Full
Nov 25
Last Quarter
Dec 2
New

Hourly Weather History & Observations

Time (MST) Temp. Windchill Dew Point Humidity Pressure Visibility Wind Dir Wind Speed Gust Speed Precip Events Conditions
12:10 AM 32.0 °F 22.1 °F 28.4 °F 87% 29.68 in 0.5 mi WSW 13.8 mph 19.6 mph 0.01 in Snow Snow
12:30 AM 32.0 °F 23.6 °F 28.4 °F 87% 29.69 in 0.5 mi WSW 10.4 mph 16.1 mph 0.04 in Snow Snow
12:50 AM 32.0 °F 24.8 °F 28.4 °F 87% 29.69 in 0.8 mi SW 8.1 mph - 0.07 in Snow Light Snow
1:10 AM 32.0 °F 26.4 °F 28.4 °F 87% 29.70 in 0.8 mi West 5.8 mph - 0.02 in Snow Light Snow
1:30 AM 32.0 °F 26.4 °F 28.4 °F 87% 29.70 in 1.0 mi SSW 5.8 mph - 0.03 in Snow Light Snow
1:50 AM 32.0 °F 25.6 °F 26.6 °F 80% 29.70 in 1.2 mi South 6.9 mph - 0.04 in Snow Light Snow
1:10 AM 32.0 °F 26.4 °F 26.6 °F 80% 29.72 in 2.0 mi SSW 5.8 mph - N/A Snow Light Snow
1:30 AM 32.0 °F 26.4 °F 26.6 °F 80% 29.71 in 1.2 mi SW 5.8 mph - N/A Snow Light Snow
1:50 AM 32.0 °F 25.6 °F 26.6 °F 80% 29.71 in 1.2 mi SSW 6.9 mph - 0.01 in Snow Light Snow
2:10 AM 30.2 °F 23.4 °F 26.6 °F 86% 29.70 in 1.5 mi SSW 6.9 mph - N/A Snow Light Snow
2:30 AM 30.2 °F 21.3 °F 26.6 °F 86% 29.70 in 1.2 mi SSW 10.4 mph - 0.01 in Snow Light Snow
2:50 AM 30.2 °F 23.4 °F 26.6 °F 86% 29.70 in 1.5 mi SW 6.9 mph - 0.01 in Snow Light Snow
3:10 AM 30.2 °F 25.4 °F 26.6 °F 86% 29.69 in 0.8 mi SW 4.6 mph - 0.01 in Snow Light Snow
3:30 AM 30.2 °F 25.4 °F 26.6 °F 86% 29.69 in 2.0 mi SW 4.6 mph - 0.01 in Snow Light Snow
3:50 AM 30.2 °F 24.3 °F 26.6 °F 86% 29.69 in 3.0 mi West 5.8 mph - 0.02 in Snow Light Snow
4:10 AM 28.4 °F 24.6 °F 24.8 °F 86% 29.69 in 4.0 mi West 3.5 mph - N/A Snow Light Snow
4:30 AM 28.4 °F 22.2 °F 24.8 °F 86% 29.69 in 3.0 mi West 5.8 mph - N/A Snow Light Snow
4:50 AM 26.6 °F 22.6 °F 23.0 °F 86% 29.69 in 1.8 mi SW 3.5 mph - N/A Snow Light Snow
5:10 AM 26.6 °F 21.2 °F 23.0 °F 86% 29.69 in 1.5 mi SSW 4.6 mph - N/A Snow Light Snow
5:30 AM 26.6 °F 21.2 °F 23.0 °F 86% 29.69 in 1.5 mi SSW 4.6 mph - N/A Snow Light Snow
5:50 AM 26.6 °F 19.1 °F 23.0 °F 86% 29.70 in 1.0 mi South 6.9 mph - 0.01 in Snow Light Snow
6:10 AM 26.6 °F 19.1 °F 23.0 °F 86% 29.70 in 1.5 mi South 6.9 mph - N/A Snow Light Snow
6:30 AM 24.8 °F 19.1 °F 23.0 °F 93% 29.69 in 10.0 mi SSE 4.6 mph - N/A   Mostly Cloudy
6:50 AM 24.8 °F 17.9 °F 21.2 °F 86% 29.70 in 10.0 mi SW 5.8 mph - 0.01 in   Overcast
7:10 AM 26.6 °F 18.2 °F 23.0 °F 86% 29.70 in 10.0 mi SW 8.1 mph - N/A   Overcast
7:30 AM 24.8 °F 16.9 °F 21.2 °F 86% 29.72 in 10.0 mi WSW 6.9 mph - N/A   Overcast
7:50 AM 24.8 °F 17.9 °F 19.4 °F 80% 29.73 in 10.0 mi WSW 5.8 mph - N/A   Mostly Cloudy
8:10 AM 23.0 °F 17.0 °F 17.6 °F 80% 29.73 in 10.0 mi SW 4.6 mph - N/A   Scattered Clouds
8:30 AM 23.0 °F 14.7 °F 19.4 °F 86% 29.74 in 10.0 mi SW 6.9 mph - N/A   Partly Cloudy
8:50 AM 23.0 °F 15.8 °F 19.4 °F 86% 29.74 in 10.0 mi WSW 5.8 mph - N/A   Partly Cloudy
9:10 AM 23.0 °F 15.8 °F 17.6 °F 80% 29.75 in 10.0 mi WSW 5.8 mph - N/A   Clear
9:30 AM 23.0 °F - 19.4 °F 86% 29.76 in 10.0 mi Calm Calm - N/A   Scattered Clouds
9:50 AM 24.8 °F 20.5 °F 19.4 °F 80% 29.76 in 10.0 mi WSW 3.5 mph - N/A   Mostly Cloudy
10:10 AM 24.8 °F 19.1 °F 23.0 °F 93% 29.76 in 10.0 mi West 4.6 mph - N/A   Partly Cloudy
10:30 AM 26.6 °F 21.2 °F 23.0 °F 86% 29.76 in 10.0 mi NW 4.6 mph - N/A   Clear
10:50 AM 26.6 °F 19.1 °F 23.0 °F 86% 29.77 in 10.0 mi West 6.9 mph - N/A   Clear
11:10 AM 26.6 °F 17.5 °F 23.0 °F 86% 29.77 in 10.0 mi WSW 9.2 mph - N/A   Clear
11:30 AM 26.6 °F 17.5 °F 23.0 °F 86% 29.77 in 10.0 mi SW 9.2 mph - N/A   Partly Cloudy
11:50 AM 26.6 °F 17.5 °F 23.0 °F 86% 29.76 in 10.0 mi SW 9.2 mph - N/A   Mostly Cloudy
12:10 PM 26.6 °F 16.8 °F 23.0 °F 86% 29.76 in 10.0 mi WSW 10.4 mph - N/A   Overcast
12:30 PM 26.6 °F 19.1 °F 23.0 °F 86% 29.76 in 10.0 mi West 6.9 mph - N/A   Mostly Cloudy
12:50 PM 26.6 °F 18.2 °F 23.0 °F 86% 29.77 in 10.0 mi West 8.1 mph - N/A   Mostly Cloudy
1:10 PM 24.8 °F 14.6 °F 23.0 °F 93% 29.77 in 10.0 mi West 10.4 mph - N/A   Mostly Cloudy
1:30 PM 26.6 °F 19.1 °F 23.0 °F 86% 29.76 in 10.0 mi WSW 6.9 mph - N/A   Partly Cloudy
1:50 PM 26.6 °F 21.2 °F 23.0 °F 86% 29.77 in 10.0 mi SSW 4.6 mph - N/A   Clear
2:10 PM 26.6 °F 18.2 °F 23.0 °F 86% 29.77 in 10.0 mi WSW 8.1 mph 18.4 mph N/A   Mostly Cloudy
2:30 PM 26.6 °F 17.5 °F 23.0 °F 86% 29.78 in 10.0 mi SW 9.2 mph - N/A   Mostly Cloudy
2:50 PM 26.6 °F 16.8 °F 23.0 °F 86% 29.79 in 10.0 mi WSW 10.4 mph 16.1 mph N/A   Scattered Clouds
3:10 PM 24.8 °F 16.9 °F 21.2 °F 86% 29.80 in 10.0 mi SW 6.9 mph - N/A   Partly Cloudy
3:30 PM 24.8 °F 16.9 °F 23.0 °F 93% 29.80 in 10.0 mi SW 6.9 mph - N/A   Mostly Cloudy
3:50 PM 24.8 °F 16.9 °F 23.0 °F 93% 29.81 in 10.0 mi SSW 6.9 mph - N/A   Mostly Cloudy
4:10 PM 23.0 °F 15.8 °F 19.4 °F 86% 29.81 in 9.0 mi South 5.8 mph - N/A Snow Light Snow
4:30 PM 23.0 °F 13.1 °F 19.4 °F 86% 29.82 in 10.0 mi South 9.2 mph - N/A Snow Light Snow
4:50 PM 23.0 °F 14.7 °F 17.6 °F 80% 29.82 in 10.0 mi SSW 6.9 mph - N/A   Mostly Cloudy
5:10 PM 21.2 °F 12.6 °F 17.6 °F 86% 29.82 in 10.0 mi SSW 6.9 mph - N/A   Mostly Cloudy
5:30 PM 19.4 °F 12.8 °F 15.8 °F 86% 29.83 in 10.0 mi SW 4.6 mph - N/A   Partly Cloudy
5:50 PM 19.4 °F 11.5 °F 15.8 °F 86% 29.83 in 10.0 mi SSW 5.8 mph - N/A   Clear
6:10 PM 17.6 °F 10.7 °F 14.0 °F 86% 29.84 in 10.0 mi SW 4.6 mph - N/A   Scattered Clouds
6:30 PM 17.6 °F 8.2 °F 15.8 °F 93% 29.84 in 10.0 mi SW 6.9 mph - N/A   Partly Cloudy
6:50 PM 19.4 °F 8.6 °F 15.8 °F 86% 29.85 in 10.0 mi SW 9.2 mph - N/A   Clear
7:10 PM 19.4 °F 9.5 °F 15.8 °F 86% 29.85 in 10.0 mi SSW 8.1 mph - N/A   Clear
7:30 PM 19.4 °F 8.6 °F 15.8 °F 86% 29.86 in 10.0 mi SW 9.2 mph - N/A   Clear
7:50 PM 19.4 °F 8.6 °F 15.8 °F 86% 29.86 in 10.0 mi SW 9.2 mph - N/A   Clear
8:10 PM 19.4 °F 11.5 °F 15.8 °F 86% 29.87 in 10.0 mi SW 5.8 mph - N/A   Clear
8:30 PM 19.4 °F 7.9 °F 15.8 °F 86% 29.88 in 10.0 mi SW 10.4 mph 17.3 mph N/A   Clear
8:50 PM 17.6 °F 6.4 °F 15.8 °F 93% 29.88 in 10.0 mi SW 9.2 mph - N/A   Clear
9:10 PM 17.6 °F 7.3 °F 15.8 °F 93% 29.89 in 10.0 mi SW 8.1 mph 16.1 mph N/A   Clear
9:30 PM 17.6 °F 10.7 °F 15.8 °F 93% 29.89 in 10.0 mi SW 4.6 mph - N/A   Clear
9:50 PM 17.6 °F 10.7 °F 15.8 °F 93% 29.90 in 10.0 mi WNW 4.6 mph - N/A   Partly Cloudy
10:10 PM 19.4 °F 14.3 °F 15.8 °F 86% 29.91 in 10.0 mi West 3.5 mph - N/A   Mostly Cloudy
10:30 PM 19.4 °F 12.8 °F 15.8 °F 86% 29.90 in 10.0 mi WSW 4.6 mph - N/A   Mostly Cloudy
10:50 PM 19.4 °F 11.5 °F 15.8 °F 86% 29.90 in 10.0 mi SSW 5.8 mph - N/A   Mostly Cloudy